x

Chambers Island, Wi (cbrw3) Weather Station

3:40am - Fri 29th Aug 2014 All times are CDT. -5 hours from GMT.

  • Wind
    3mph, 7mph gusts
  • Air Temp 65°f
  • Sea Pressure 1016.6mb
  • Chambers Island, Wi
  • Chambers Island, Wi

More Historic Weather Station data

Upgrade to MSW Pro to gain access to the past 30 days of data for over 8000 Wavebouys and Weather Stations around the globe.

Join Pro

Comparision Forecast

View Surf forecast
   
Fri 08/29 3:40am 3 7 mph 1016.6mb 65f
3:30am 3 8 mph 1016.6mb 65f
3:20am 3 7 mph 1016.6mb 65f
3:10am 2 7 mph 1016.9mb 65f
3:00am 3 7 mph 1016.9mb 65f
2:40am 5 9 mph 1016.9mb 65f
2:30am 6 10 mph 1016.9mb 65f
2:20am 3 9 mph 1016.9mb 65f
2:10am 6 9 mph 1016.9mb 65f
2:00am 6 10 mph 1016.9mb 65f
1:40am 5 8 mph 1017.3mb 65f
1:30am 7 10 mph 1017.6mb 65f
1:20am 5 9 mph 1017.6mb 65f
1:10am 7 11 mph 1017.6mb 64f
1:00am 6 9 mph 1017.9mb 64f
12:40am 7 10 mph 1017.9mb 64f
12:30am 7 13 mph 1017.9mb 64f
12:20am 7 10 mph 1017.9mb 64f
12:10am 7 10 mph 1017.9mb 64f
12:00am 6 11 mph 1017.9mb 64f
Thu 08/28 11:40pm 5 8 mph 1018.3mb 64f
11:30pm 6 10 mph 1018.3mb 64f
11:20pm 7 9 mph 1018.3mb 64f
11:10pm 6 8 mph 1018.3mb 64f
11:00pm 7 9 mph 1018.3mb 64f
10:40pm 3 8 mph 1018.3mb 63f
10:30pm 6 9 mph 1018.3mb 63f
10:20pm 5 9 mph 1018.6mb 63f
10:10pm 5 8 mph 1018.6mb 63f
10:00pm 5 10 mph 1018.6mb 63f
9:40pm 5 10 mph 1018.6mb 63f
9:30pm 5 8 mph 1019mb 63f
9:20pm 6 8 mph 1019mb 63f
9:10pm 7 10 mph 1019mb 63f
9:00pm 5 7 mph 1019mb 63f
8:40pm 5 8 mph 1019.3mb 64f
8:30pm 3 7 mph 1019.3mb 64f
8:20pm 6 9 mph 1019mb 64f
8:10pm 5 7 mph 1019mb 63f
8:00pm 5 7 mph 1019mb 63f
7:40pm 2 6 mph 1019mb 63f
7:30pm 1 8 mph 1019mb 64f
7:20pm 2 9 mph 1019mb 64f
7:10pm 3 7 mph 1019mb 64f
7:00pm 5 7 mph 1019mb 64f
6:40pm 5 8 mph 1019mb 64f
6:30pm 5 8 mph 1019mb 64f
6:20pm 6 8 mph 1019mb 64f
6:10pm 3 9 mph 1019.3mb 65f
6:00pm 6 8 mph 1019.3mb 65f
5:40pm 6 13 mph 1019.3mb 65f
5:30pm 6 10 mph 1019.3mb 66f
5:20pm 7 10 mph 1019.3mb 66f
5:10pm 5 11 mph 1019.3mb 66f
5:00pm 6 9 mph 1019.3mb 66f
4:40pm 7 11 mph 1019.6mb 66f
4:30pm 7 11 mph 1019.6mb 67f
4:20pm 6 11 mph 1019.6mb 67f
4:10pm 7 10 mph 1019.6mb 67f
4:00pm 5 11 mph 1019.6mb 67f
3:40pm 7 11 mph 1020mb 66f
3:30pm 5 13 mph 1020mb 66f
3:20pm 6 16 mph 1020mb 65f
3:10pm 8 15 mph 1020mb 65f
3:00pm 7 11 mph 1020.3mb 65f
2:40pm 7 11 mph 1020.3mb 65f
2:30pm 5 11 mph 1020.7mb 65f
2:20pm 7 13 mph 1020.7mb 65f
2:10pm 6 11 mph 1020.7mb 65f
2:00pm 6 13 mph 1021mb 65f
1:40pm 6 14 mph 1021.3mb 66f
1:30pm 7 11 mph 1021.3mb 66f
1:20pm 7 14 mph 1021.3mb 65f
1:10pm 5 14 mph 1021mb 66f
1:00pm 5 10 mph 1021.3mb 66f
12:40pm 5 10 mph 1021.3mb 66f
12:30pm 5 13 mph 1021.3mb 66f
12:20pm 5 13 mph 1021.3mb 67f
12:10pm 5 11 mph 1021.3mb 67f
12:00pm 5 10 mph 1021.3mb 67f
11:40am 5 9 mph 1021.7mb 66f
11:30am 3 11 mph 1021.7mb 66f
11:20am 3 10 mph 1021.7mb 66f
11:10am 6 11 mph 1021.7mb 65f
11:00am 8 11 mph 1021.7mb 65f
10:40am 5 9 mph 1021.7mb 65f
10:30am 6 11 mph 1022mb 65f
10:20am 6 9 mph 1021.7mb 65f
10:10am 5 9 mph 1021.7mb 65f
10:00am 6 9 mph 1021.7mb 65f
9:40am 6 9 mph 1021.7mb 64f
9:30am 5 8 mph 1022mb 64f
9:20am 7 10 mph 1022mb 64f
9:10am 6 10 mph 1021.7mb 64f
9:00am 6 10 mph 1021.7mb 64f
8:40am 5 9 mph 1021.7mb 66f
8:30am 6 9 mph 1021.7mb 65f
8:20am 6 8 mph 1021.7mb 65f
8:10am 3 7 mph 1021.7mb 64f
8:00am 6 9 mph 1021.7mb 65f
7:40am 3 5 mph 1021.7mb 64f
7:30am 1 6 mph 1022mb 63f
7:20am 2 5 mph 1021.7mb 61f
7:10am 3 5 mph 1021.7mb 60f
7:00am 3 5 mph 1021.7mb 60f
6:40am  -  3 mph 1021.7mb 59f
6:30am 2 3 mph 1021.7mb 59f
6:20am 2 5 mph 1021.7mb 58f
6:10am 2 3 mph 1021.7mb 59f
6:00am  -  2 mph 1021.7mb 59f
5:40am 2 3 mph 1021.7mb 60f
5:30am 1 5 mph 1021.7mb 60f
5:20am 2 6 mph 1021.3mb 60f
5:10am 3 6 mph 1021.7mb 60f
5:00am 2 3 mph 1021.7mb 59f
4:40am 1 3 mph 1021.7mb 58f
4:30am 1 2 mph 1021.7mb 58f
4:20am 2 5 mph 1022mb 58f
4:10am 3
mph
1021.7mb 57f
4:00am 2 5 mph 1021.3mb 58f
3:50am 3 6 mph 1021.3mb 60f
3:40am 3 6 mph 1021.3mb 60f
3:30am 3 6 mph 1021.3mb 59f
3:20am 2 6 mph 1021.7mb 60f
3:10am 3 6 mph 1021.3mb 61f
3:00am 3 7 mph 1021.7mb 61f
2:50am 3 7 mph 1021.7mb 62f
2:40am 1 6 mph 1021.7mb 62f
2:30am 3 6 mph 1021.7mb 62f
2:20am 3 8 mph 1021.7mb 62f
2:10am 5 7 mph 1021.7mb 62f
2:00am 5 6 mph 1021.7mb 62f
1:50am 2 8 mph 1022mb 62f
1:40am 5 7 mph 1021.7mb 62f
1:30am 3 6 mph 1022mb 62f
1:20am 3 7 mph 1022mb 62f
1:10am 3 7 mph 1022mb 62f
1:00am 3 7 mph 1022mb 62f
12:50am 5 7 mph 1022mb 63f
12:40am 3 7 mph 1022mb 63f
12:30am 1 7 mph 1022.4mb 62f
12:20am 5 9 mph 1022mb 63f
12:10am 6 10 mph 1022mb 63f
12:00am 6 10 mph 1021.7mb 63f
Wed 08/27 11:50pm 7 10 mph 1021.7mb 63f
11:40pm 7 11 mph 1021.7mb 63f
11:30pm 6 10 mph 1021.3mb 63f
11:20pm 7 13 mph 1021.3mb 63f
11:10pm 8 11 mph 1021.3mb 63f
11:00pm 7 13 mph 1021.3mb 63f
10:50pm 7 10 mph 1021.3mb 64f
10:40pm 5 10 mph 1021.3mb 63f
10:30pm 5 11 mph 1021mb 63f
10:20pm 3 7 mph 1021.3mb 63f
10:10pm 3 7 mph 1021mb 62f
10:00pm 3 8 mph 1021mb 62f
9:50pm 5 7 mph 1021mb 62f
9:40pm 5 7 mph 1021mb 62f
9:30pm 3 9 mph 1021mb 62f
9:20pm 5 7 mph 1020.7mb 62f
9:10pm 5 6 mph 1021mb 61f
9:00pm 2 5 mph 1020.7mb 61f
8:50pm 2 7 mph 1020.7mb 62f
8:40pm 3 8 mph 1021mb 62f
8:30pm 6 9 mph 1020.7mb 63f
8:20pm 5 8 mph 1020.7mb 63f
8:10pm 3 8 mph 1020.7mb 62f
8:00pm 5 8 mph 1020.3mb 61f
7:50pm  -  2 mph 1020.3mb 60f
7:40pm 1 2 mph 1020.3mb 60f
7:30pm  -  1 mph 1020.3mb 61f
7:20pm  -  mph 1020.3mb 63f
7:10pm  -  mph 1020.3mb 65f
7:00pm  -  2 mph 1020.3mb 68f
6:50pm  -  3 mph 1020.3mb 68f
6:40pm 1 5 mph 1020.7mb 68f
6:30pm 3 6 mph 1020.3mb 68f
6:20pm 3 6 mph 1020.3mb 68f
6:10pm 3 6 mph 1020.7mb 68f
6:00pm 3 6 mph 1020.7mb 68f
5:50pm 3 8 mph 1020.7mb 68f
5:40pm 6 9 mph 1020.7mb 68f
5:30pm 5 8 mph 1020.7mb 68f
5:20pm 5 9 mph 1020.7mb 67f
5:10pm 5 7 mph 1020.7mb 68f
5:00pm 5 8 mph 1020.7mb 68f
4:50pm 2 9 mph 1020.7mb 68f
4:40pm 5 9 mph 1020.7mb 68f
4:30pm 3 8 mph 1021mb 68f
4:20pm 3 8 mph 1021mb 68f
4:10pm 5 8 mph 1021mb 67f
4:00pm 2 9 mph 1021mb 68f
3:50pm 3 9 mph 1021.3mb 68f
3:40pm 3 11 mph 1021.3mb 68f
3:30pm 6 10 mph 1021.3mb 68f
3:20pm 5 6 mph 1021.3mb 69f
3:10pm 2 3 mph 1021.3mb 71f
3:00pm  -  5 mph 1021.3mb 68f
2:50pm  -  7 mph 1021.7mb 69f
2:40pm 6 9 mph 1021.7mb 67f
2:30pm 2 7 mph 1021.7mb 68f
2:20pm  -  6 mph 1021.7mb 67f
2:10pm 3 7 mph 1021.7mb 69f
2:00pm 2 8 mph 1022mb 67f
1:50pm  -  5 mph 1022mb 69f
1:40pm 2 7 mph 1022.4mb 67f
1:30pm 5 7 mph 1022.4mb 67f
1:20pm  -  2 mph 1022.4mb 69f
1:10pm 2 6 mph 1022.4mb 67f
1:00pm 5 7 mph 1022.4mb 65f
12:50pm 5 6 mph 1022.4mb 65f
12:40pm 2 6 mph 1022.4mb 65f
12:30pm 3
mph
1022.4mb 68f
12:20pm 2 5 mph 1022.7mb 69f
12:10pm 5
mph
1022.7mb 67f
12:00pm 3 5 mph 1022.7mb 66f
11:50am 3 5 mph 1022.7mb 67f
11:40am 3 5 mph 1022.7mb 65f
11:30am 2 3 mph 1022.7mb 65f
11:20am 3 5 mph 1022.7mb 64f
11:10am 3 5 mph 1022.7mb 66f
11:00am 3 5 mph 1022.7mb 68f
10:50am 3 5 mph 1022.7mb 68f
10:40am 3 5 mph 1023mb 68f
10:30am 5 6 mph 1023mb 67f
10:20am 3 6 mph 1023mb 67f
10:10am 5 6 mph 1023mb 67f
10:00am 5 6 mph 1023mb 68f
9:50am 3 6 mph 1023mb 67f
9:40am 3 7 mph 1022.7mb 67f
9:30am 2 5 mph 1022.7mb 68f
9:20am 2 5 mph 1022.4mb 69f
9:10am 3 6 mph 1022.4mb 66f
9:00am 3 7 mph 1022.4mb 63f
8:50am 5 6 mph 1022mb 64f
8:40am 3 6 mph 1022.4mb 64f
8:30am 2 5 mph 1022mb 66f
8:20am 3 6 mph 1022mb 66f
8:10am 2 3 mph 1022mb 62f
8:00am 1 2 mph 1022mb 61f
7:50am 1 2 mph 1022mb 60f
7:40am 1 6 mph 1022mb 60f
7:30am 6 9 mph 1022mb 60f
7:20am 8 11 mph 1022mb 60f
7:10am 9 13 mph 1021.7mb 60f
7:00am 10 15 mph 1022mb 60f
6:50am 8 9 mph 1021.7mb 60f
6:40am 5 9 mph 1021.7mb 60f
6:30am 7 10 mph 1021.3mb 59f
6:20am 3 8 mph 1021.3mb 59f
6:10am 6 8 mph 1021mb 60f
6:00am 5 9 mph 1021.3mb 60f
5:50am 9 11 mph 1021.3mb 60f
5:40am 7 9 mph 1021.7mb 60f
5:30am 8 9 mph 1021.3mb 61f
5:20am 6 8 mph 1021.3mb 61f
5:10am 6 8 mph 1021mb 61f
5:00am 7 9 mph 1021.3mb 61f
4:50am 7 9 mph 1021.3mb 61f
4:40am 7 8 mph 1021.3mb 62f
4:30am 7 9 mph 1021.3mb 62f
4:20am 7 8 mph 1021.3mb 62f
4:10am 7 9 mph 1021.3mb 63f
4:00am 7 9 mph 1021.3mb 63f
3:50am 8 10 mph 1021.7mb 63f
3:40am 8 11 mph 1021.3mb 63f
3:30am 9 11 mph 1021.3mb 64f
3:20am 8 13 mph 1021.3mb 64f
3:10am 9 14 mph 1021.3mb 64f
3:00am 10 14 mph 1021mb 64f
2:50am 10 13 mph 1021mb 64f
2:40am 10 13 mph 1021mb 64f
2:30am 11 14 mph 1021mb 64f
2:20am 10 14 mph 1020.7mb 64f
2:10am 11 14 mph 1020.7mb 65f
2:00am 14 15 mph 1020.7mb 64f
1:50am 10 13 mph 1020.7mb 64f
1:40am 11 16 mph 1020.7mb 64f
1:30am 14 15 mph 1020.7mb 64f
1:20am 11 15 mph 1020.7mb 64f
1:10am 13 15 mph 1020.7mb 64f
1:00am 14 17 mph 1020.7mb 64f
12:50am 15 17 mph 1020.7mb 65f
12:40am 14 17 mph 1020.7mb 65f
12:30am 14 17 mph 1020.7mb 65f
12:20am 15 18 mph 1020.3mb 65f
12:10am 15 18 mph 1020.3mb 65f
12:00am 15 18 mph 1020.3mb 65f
Tue 08/26 11:50pm 16 20 mph 1020.3mb 64f
11:40pm 18 21 mph 1020.3mb 64f
11:30pm 17 22 mph 1020.3mb 64f
11:20pm 18 23 mph 1020.3mb 64f
11:10pm 18 24 mph 1020.3mb 64f
11:00pm 23 25 mph 1020mb 64f
10:50pm 23 28 mph 1020mb 64f
10:40pm 24 26 mph 1020mb 64f
10:30pm 23 26 mph 1019.6mb 65f
10:20pm 6 8 mph 1019.3mb 65f
10:10pm 2 5 mph 1019.3mb 63f
10:00pm 1 2 mph 1019.3mb 60f
9:50pm  -  2 mph 1019.3mb 59f
9:40pm 1 2 mph 1019.3mb 60f
9:30pm  -  2 mph 1019mb 62f
9:20pm  -  5 mph 1019mb 63f
9:10pm 1 2 mph 1019mb 60f
9:00pm 1 2 mph 1019mb 60f
8:50pm  -  3 mph 1019mb 60f
8:40pm 1 3 mph 1019mb 61f
8:30pm 2
mph
1019mb 61f
8:20pm 1 3 mph 1019mb 62f
8:10pm 2 3 mph 1019mb 62f
8:00pm 2 3 mph 1018.6mb 64f
7:50pm  -  3 mph 1018.3mb 63f
7:40pm  -  3 mph 1018.6mb 65f
7:30pm  -  5 mph 1018.6mb 66f
7:20pm 2 5 mph 1018.6mb 67f
7:10pm 2 6 mph 1018.6mb 69f
7:00pm 2 5 mph 1018.6mb 69f
6:50pm 1 5 mph 1018.3mb 71f
6:40pm 1 6 mph 1018.3mb 71f
6:30pm 2 7 mph 1018.3mb 71f
6:20pm 3 7 mph 1018.3mb 71f
6:10pm 3 7 mph 1018.6mb 71f
6:00pm 3 8 mph 1018.3mb 72f
5:50pm 2 7 mph 1018.3mb 71f
5:40pm 3 7 mph 1018.3mb 71f
5:30pm 2 6 mph 1018.3mb 71f
5:20pm 2 6 mph 1018.6mb 73f
5:10pm 3 6 mph 1018.6mb 73f
5:00pm 2 7 mph 1018.6mb 73f
4:50pm 2 8 mph 1018.6mb 73f
4:40pm 2 6 mph 1018.6mb 72f
4:30pm  -  5 mph 1018.3mb 73f
4:20pm 3 7 mph 1018.6mb 73f
4:10pm 3 7 mph 1018.6mb 74f
4:00pm 1 3 mph 1018.3mb 74f
3:50pm 3 5 mph 1018.3mb 70f
3:40pm 2 6 mph 1018.3mb 71f
3:30pm 5 6 mph 1018.3mb 69f
3:20pm 5 6 mph 1018.3mb 70f
3:10pm  -  2 mph 1018.3mb 73f
3:00pm 3 5 mph 1018.3mb 72f
2:50pm  -  1 mph 1018.3mb 71f
2:40pm 1 3 mph 1018.3mb 70f
2:30pm 2 5 mph 1018.3mb 70f
2:20pm 5 9 mph 1017.9mb 70f
2:10pm 9 10 mph 1017.6mb 71f
2:00pm 6 7 mph 1017.6mb 72f
1:50pm 5 7 mph 1018.3mb 72f
1:40pm 6 7 mph 1018.3mb 73f
1:30pm 6 10 mph 1018.3mb 72f
1:20pm 7 9 mph 1018.3mb 73f
1:10pm 5 6 mph 1018.6mb 73f
1:00pm 2 7 mph 1018.6mb 74f
12:50pm 3 8 mph 1018.6mb 73f
12:40pm 6 9 mph 1018.6mb 71f
12:30pm 6 11 mph 1018.6mb 70f
12:20pm 5 10 mph 1018.6mb 71f
12:10pm 6 10 mph 1019mb 71f
12:00pm 3 9 mph 1018.6mb 71f
11:50am 7 10 mph 1018.6mb 70f
11:40am 7 11 mph 1018.6mb 71f
11:30am 6 11 mph 1018.6mb 72f
11:20am 6 10 mph 1018.6mb 71f
11:10am 7 11 mph 1018.6mb 71f
11:00am 6 10 mph 1019mb 71f
10:50am 3 7 mph 1019mb 72f
10:40am 5 9 mph 1018.6mb 71f
10:30am 6 9 mph 1019mb 69f
10:20am 5 9 mph 1019mb 71f
10:10am 6 11 mph 1019mb 70f
10:00am 8 11 mph 1018.6mb 70f
9:50am 5 10 mph 1019mb 71f
9:40am 7 10 mph 1019mb 70f
9:30am 7 13 mph 1019mb 69f
9:20am 9 14 mph 1019mb 68f
9:10am 10 13 mph 1019mb 68f
9:00am 8 13 mph 1018.6mb 68f
8:50am 10 13 mph 1018.6mb 68f
8:40am 9 15 mph 1018.3mb 68f
8:30am 14 15 mph 1018.3mb 67f
8:20am 6 9 mph 1018.3mb 68f
8:10am 5 8 mph 1018.3mb 67f
8:00am 3 6 mph 1018.3mb 68f
7:50am 1 3 mph 1017.9mb 70f
7:40am  -  3 mph 1017.9mb 71f
7:30am 1 5 mph 1017.6mb 71f
7:20am  -  3 mph 1017.6mb 72f
7:10am 1 3 mph 1017.6mb 69f
7:00am  -  2 mph 1017.6mb 66f
6:50am  -  1 mph 1017.3mb 68f
6:40am  -  3 mph 1017.3mb 68f
6:30am 2 3 mph 1017.3mb 67f
6:20am  -  1 mph 1017.3mb 64f
6:10am  -  mph 1016.9mb 64f
6:00am  -  mph 1016.6mb 64f
5:50am  -  mph 1016.9mb 65f
5:40am  -  2 mph 1016.6mb 65f
5:30am 2 6 mph 1016.6mb 67f
5:20am 6
mph
1016.6mb 69f
5:10am 6 7 mph 1016.6mb 69f
5:00am 7 8 mph 1016.3mb 69f
4:50am 8 9 mph 1016.3mb 69f
4:40am 8 10 mph 1016.3mb 69f
4:30am 8 10 mph 1016.3mb 69f
4:20am 9 11 mph 1015.6mb 69f
4:10am 10 14 mph 1015.6mb 69f
4:00am 10 14 mph 1015.6mb 69f
3:50am 10 13 mph 1015.6mb 70f
3:40am 5 8 mph 1015.2mb 71f
3:30am 5 8 mph 1015.2mb 71f
3:20am 3 7 mph 1015.2mb 71f
3:10am 3 7 mph 1015.2mb 72f
3:00am 3 8 mph 1015.2mb 72f
2:50am 3 9 mph 1015.2mb 72f
2:40am 6 11 mph 1015.2mb 72f
2:30am 6 9 mph 1014.9mb 72f
2:20am 6 11 mph 1014.9mb 72f
2:10am 7 10 mph 1014.6mb 72f
2:00am 6 11 mph 1014.6mb 72f
1:50am 6 14 mph 1014.6mb 72f
1:40am 7 14 mph 1014.6mb 72f
1:30am 8 14 mph 1014.6mb 72f
1:20am 6 14 mph 1014.2mb 72f
1:10am 8 15 mph 1014.2mb 72f
1:00am 7 14 mph 1014.2mb 72f
12:50am 8 14 mph 1013.9mb 72f
12:40am 7 14 mph 1013.9mb 72f
12:30am 8 15 mph 1013.9mb 73f
12:20am 8 14 mph 1013.5mb 73f
12:10am 8 14 mph 1013.5mb 73f
12:00am 6 11 mph 1013.5mb 72f
Mon 08/25 11:50pm 7 13 mph 1013.5mb 72f
11:40pm 6 13 mph 1013.5mb 72f
11:30pm 5 13 mph 1013.5mb 72f
11:20pm 6 13 mph 1013.5mb 72f
11:10pm 6 11 mph 1013.5mb 72f
11:00pm 5 10 mph 1013.5mb 71f
10:50pm 5 10 mph 1013.2mb 71f
10:40pm 6 10 mph 1013.2mb 71f
10:30pm 6 11 mph 1013.2mb 71f
10:20pm 5 14 mph 1013.2mb 71f
10:10pm 5 14 mph 1013.2mb 71f
10:00pm 6 13 mph 1013.2mb 71f
9:50pm 5 14 mph 1013.5mb 71f
9:40pm 7 11 mph 1013.5mb 71f
9:30pm 6 11 mph 1013.5mb 71f
9:20pm 6 11 mph 1013.5mb 71f
9:10pm 6 13 mph 1013.2mb 71f
9:00pm 6 13 mph 1013.5mb 71f
8:50pm 7 11 mph 1013.2mb 72f
8:40pm 6 11 mph 1013.2mb 72f
8:30pm 6 13 mph 1013.2mb 72f
8:20pm 6 14 mph 1012.9mb 72f
8:10pm 7 13 mph 1012.9mb 72f
8:00pm 5 10 mph 1012.9mb 72f
7:50pm 6 11 mph 1012.9mb 72f
7:40pm 6 13 mph 1012.9mb 72f
7:30pm 6 14 mph 1012.9mb 73f
7:20pm 8 14 mph 1012.9mb 73f
7:10pm 7 15 mph 1012.9mb 73f
7:00pm 8 14 mph 1012.9mb 74f
6:50pm 7 13 mph 1013.2mb 74f
6:40pm 5 13 mph 1013.2mb 74f
6:30pm 6 13 mph 1012.9mb 74f
6:20pm 6 15 mph 1013.2mb 74f
6:10pm 7 15 mph 1013.2mb 75f
6:00pm 6 14 mph 1013.2mb 74f
5:50pm 6 15 mph 1013.5mb 74f
5:40pm 5 13 mph 1013.5mb 75f
5:30pm 3 14 mph 1013.5mb 75f
5:20pm 5 15 mph 1013.5mb 76f
5:10pm 8 16 mph 1013.2mb 75f
5:00pm 5 13 mph 1013.2mb 78f
4:50pm 8 13 mph 1013.2mb 78f
4:40pm 6 14 mph 1013.2mb 78f
4:30pm 3 15 mph 1013.2mb 78f
4:20pm 6 13 mph 1012.9mb 78f
4:10pm 7 15 mph 1012.9mb 78f
4:00pm 6 17 mph 1012.9mb 78f
3:50pm 8 14 mph 1012.9mb 78f
3:40pm 7 17 mph 1012.9mb 78f
3:30pm 7 17 mph 1012.9mb 78f
3:20pm 9 16 mph 1013.2mb 78f
3:10pm 8 15 mph 1013.5mb 77f
3:00pm 6 13 mph 1013.5mb 76f
2:50pm 6 14 mph 1013.9mb 77f
2:40pm 7 13 mph 1013.9mb 77f
2:30pm 5 11 mph 1014.2mb 76f
2:20pm 6 13 mph 1014.2mb 77f
2:10pm 5 15 mph 1013.9mb 77f
2:00pm 5 14 mph 1014.2mb 76f
1:50pm 6 11 mph 1013.9mb 76f
1:40pm 7 13 mph 1013.9mb 76f
1:30pm 7 11 mph 1014.2mb 75f
1:20pm 6 13 mph 1014.2mb 75f
1:10pm 7 11 mph 1014.2mb 75f
1:00pm 5 9 mph 1014.2mb 75f
12:50pm 1 8 mph 1014.2mb 77f
12:40pm 3 9 mph 1014.2mb 75f
12:30pm 3 9 mph 1014.2mb 75f
12:20pm 3 10 mph 1014.2mb 75f
12:10pm 7 10 mph 1014.2mb 74f
12:00pm 6 10 mph 1014.6mb 74f
11:50am 5 8 mph 1014.6mb 74f
11:40am 5 10 mph 1014.6mb 73f
11:30am 5 10 mph 1014.9mb 73f
11:20am 3 9 mph 1014.6mb 73f
11:10am 3 11 mph 1014.9mb 73f
11:00am 6 13 mph 1014.6mb 72f
10:50am 5 11 mph 1014.6mb 72f
10:40am 7 14 mph 1014.6mb 71f
10:30am 6 17 mph 1014.6mb 71f
10:20am 9 17 mph 1014.2mb 71f
10:10am 9 15 mph 1014.2mb 71f
10:00am 7 20 mph 1014.2mb 71f
9:50am 8 18 mph 1013.2mb 71f
9:40am 9 21 mph 1013.5mb 71f
9:30am 7 13 mph 1013.9mb 71f
9:20am 8 14 mph 1013.9mb 71f